Regional Weather Roundup
Issued by NWS

Home | Current Version | Previous Version | Graphics & Text | Print | Product List | Glossary On
Versions: 1 2 3 4 5 6 7 8 9 10 11 12 13 14 15 16 17 18 19 20 21 22 23 24 25 26 27
000
ASUS45 KCYS 182110
RWRWY

WYOMING REGIONAL WEATHER ROUNDUP
NATIONAL WEATHER SERVICE CHEYENNE WY
200 PM MST WED JAN 18 2017

NOTE:  "FAIR" INDICATES FEW OR NO CLOUDS BELOW 12,000 FEET
WITH NO SIGNIFICANT WEATHER AND/OR OBSTRUCTIONS TO VISIBILITY.

WYZ001-182200-
YELLOWSTONE NATIONAL PARK

CITY           SKY/WX    TMP DP  RH WIND       PRES   REMARKS
LK YELLOWSTONE   N/A     17  11  77 CALM      29.94F
W YELLOWSTONE  NOT AVBL

$$
WYZ002>013-054>058-071-098>099-182200-
NORTHERN WYOMING

CITY           SKY/WX    TMP DP  RH WIND       PRES   REMARKS
JACKSON        SUNNY      7   5  92 SE3       29.99F
CODY           FAIR      22  14  71 CALM      29.74S
GREYBULL       MIX PCPN  16   8  71 NW7       29.79F WCI   6
WORLAND        FAIR      32  23  69 SW3       29.75F
SHERIDAN       FAIR      34  22  61 S5        29.63F WCI  30
BUFFALO        FAIR      43  21  41 NW8       29.66F
GILLETTE       FAIR      49  22  34 W13G22    29.66F
HULETT         FAIR      52  21  30 SW9       29.66F
NEWCASTLE      FAIR      41  21  45 CALM      29.72F

$$
WYZ014>020-022>026-101>103-182200-
CENTRAL WYOMING

CITY           SKY/WX    TMP DP  RH WIND       PRES   REMARKS
BIG PINEY      FAIR       4  -2  76 NE6       29.96F WCI  -7
PINEDALE       FAIR      10   1  67 NW3       29.96F
DUBOIS         NOT AVBL
LANDER         FAIR      22  10  60 NW7       29.85F WCI  13
RIVERTON       FAIR      19   9  65 N7        29.86F WCI  10
CASPER         FAIR      41  18  39 SW37G47   29.78F
DOUGLAS        FAIR      56  19  23 NW15      29.73F

$$
WYZ021-027>030-104>119-182200-
SOUTHERN WYOMING

CITY           SKY/WX    TMP DP  RH WIND       PRES   REMARKS
EVANSTON       FAIR      24  11  57 S9        29.94F WCI  14
ROCK SPRINGS   FAIR      12   6  77 S3        29.96F
RAWLINS        FAIR      31  21  66 S8        29.94F WCI  23
LARAMIE        FAIR      25  16  68 N3        29.86F
CHEYENNE       FAIR      56  14  19 W10       29.78F
TORRINGTON     FAIR      55  15  20 CALM      29.73F

$$




USA.gov is the U.S. government's official web portal to all federal, state and local government web resources and services.